This is the latest recevied weather packets stored in our database for station/object VA3VWX-13. If no packets are shown the sender has not sent any weather packets the latest 10 day(s).
| Time | Temp. | Humidity | Pressure | Rain* | Wind** | Luminosity | Snow |
|---|---|---|---|---|---|---|---|
| 1778181505 | 9.44° C | 64% | 1011.1 hPa | 0 mm | - | - | - |
| 1778181211 | 10° C | 62% | 1011.1 hPa | 0 mm | - | - | - |
| 1778180921 | 10.56° C | 62% | 1011.1 hPa | 0 mm | - | - | - |
| 1778180638 | 10.56° C | 62% | 1011.1 hPa | 0 mm | - | - | - |
| 1778180327 | 10.56° C | 62% | 1011.1 hPa | 0 mm | - | - | - |
| 1778180004 | 10.56° C | 59% | 1011.1 hPa | 0 mm | - | - | - |
| 1778179709 | 10° C | 62% | 1011.1 hPa | 0 mm | - | - | - |
| 1778179415 | 10° C | 64% | 1011.1 hPa | 0 mm | - | - | - |
| 1778179112 | 10° C | 63% | 1011.1 hPa | 0 mm | - | - | - |
| 1778178818 | 10° C | 61% | 1011.2 hPa | 0 mm | - | - | - |
| 1778178525 | 9.44° C | 63% | 1011.2 hPa | 0 mm | - | - | - |
| 1778178202 | 9.44° C | 65% | 1011.2 hPa | 0 mm | - | - | - |
| 1778177911 | 9.44° C | 64% | 1011.3 hPa | 0 mm | - | - | - |
| 1778177616 | 9.44° C | 64% | 1011.2 hPa | 0 mm | - | - | - |
| 1778177315 | 8.89° C | 65% | 1011.4 hPa | 0 mm | - | - | - |
| 1778177032 | 9.44° C | 65% | 1011.4 hPa | 0 mm | - | - | - |
| 1778176721 | 9.44° C | 66% | 1011.2 hPa | 0 mm | - | - | - |
| 1778176409 | 9.44° C | 66% | 1011.2 hPa | 0 mm | - | - | - |
| 1778176107 | 9.44° C | 65% | 1011.2 hPa | 0 mm | - | - | - |
| 1778175814 | 8.89° C | 68% | 1011.1 hPa | 0 mm | - | - | - |
| 1778175521 | 8.33° C | 69% | 1011.2 hPa | 0 mm | - | - | - |
| 1778175227 | 8.33° C | 71% | 1011.2 hPa | 0 mm | - | - | - |
| 1778174906 | 7.78° C | 70% | 1011.7 hPa | 0 mm | - | - | - |
| 1778174612 | 8.33° C | 69% | 1011.6 hPa | 0 mm | - | - | - |
| 1778174320 | 8.33° C | 69% | 1011.6 hPa | 0 mm | - | - | - |
* Rain latest hour (hover to see other rain measurements)
** Current wind speed in m/s (hover to see current wind gust speed)